Location: Wildlife_Club
(35.6000°N, 81.4330°W)
Time: 14:18:20
(UTC-04:00)

ISS - Visible Passes

Search period start: 19 May 2019 00:00
Search period end: 29 May 2019 00:00
Orbit: 407 x 410 km, 51.6° (Epoch: 20 May)

Date Brightness Start Highest point End Pass type
(mag) Time Alt. Az. Time Alt. Az. Time Alt. Az.
19 May -1.3 03:56:41 10° NNW 03:59:24 23° NNE 04:02:06 10° E visible
19 May -3.1 05:33:00 10° WNW 05:35:59 32° SW 05:38:58 10° SSE visible
19 May -1.3 22:12:02 10° W 22:14:47 24° NNW 22:17:32 10° NNE visible
20 May -0.6 03:06:18 10° N 03:08:18 15° NNE 03:10:18 10° ENE visible
20 May -4.0 04:41:54 10° NW 04:45:11 69° SW 04:48:28 10° SE visible
20 May -2.4 21:20:38 10° WSW 21:23:47 41° NW 21:26:56 10° NE visible
21 May -0.4 22:08:20 10° NW 22:09:51 13° NNW 22:11:22 10° N visible
22 May -0.8 21:16:16 10° WNW 21:18:42 19° NNW 21:21:08 10° NNE visible
24 May -0.3 21:13:09 10° NNW 21:13:45 10° NNW 21:14:22 10° NNW visible
27 May -0.2 00:22:51 10° N 00:23:04 11° N 00:23:04 11° N visible
27 May -0.6 23:33:01 10° NNE 23:33:37 10° NNE 23:33:43 10° NNE visible
